#timestamp,LO_Frequency,Hit,StdDev 
1632110415.4,286046998.6,N
1632110435.2,286047000.7,N
1632110455.0,286047000.1,N
1632110455.9,286047000.1,N
1632110475.8,286047000.9,N
1632110495.6,286047000.2,N
1632110515.4,286047000.4,N
1632110535.3,286047000.0,N
1632110555.1,286047000.5,N
1632110575.9,286046999.4,N
1632110595.7,286046997.4,N
1632110615.5,286046997.3,N
1632110635.4,286046996.9,N
1632110655.2,286046999.0,N
1632110675.0,286047001.2,N
1632110675.9,286047001.2,N
1632110695.8,286046998.5,N
1632110715.6,286047001.2,N
1632110735.1,286047000.3,N
1632110755.9,286047000.0,N
1632110775.7,286047002.5,N
1632110795.5,286047004.1,N
1632110815.4,286047004.4,N
1632110835.2,286047001.6,N
1632110855.0,286047001.9,N
1632110856.0,286047001.9,N
1632110875.8,286047001.8,N
1632110895.6,286047001.7,N
1632110915.5,286047001.3,N
1632110935.3,286047002.8,N
1632110955.1,286047000.2,N
1632110975.9,286046998.1,N
1632110995.7,286046998.7,N
1632111015.6,286047000.0,N
1632111035.4,286047001.9,N
1632111055.2,286047002.5,N
1632111075.1,286047001.4,N
1632111076.0,286047001.4,N
1632111095.8,286047002.8,N
1632111115.7,286047003.9,N
1632111135.2,286047001.8,N
1632111155.0,286047001.8,N
1632111155.9,286047001.8,N
1632111175.7,286047002.2,N
1632111195.6,286046999.9,N
1632111215.4,286047000.0,N
1632111235.3,286047001.6,N
1632111255.1,286047002.6,N
1632111256.0,286047002.6,N
1632111275.8,286047001.6,N
1632111295.7,286047001.8,N
1632111315.5,286047002.4,N
1632111335.4,286047004.2,Y
1632111355.2,286047002.7,P
1632111375.0,286046999.8,N
1632111375.9,286046999.8,N
1632111395.8,286047000.2,N
1632111415.6,286047000.2,N
1632111435.5,286047002.5,N
1632111455.3,286046999.8,N
1632111475.1,286047002.6,N
1632111495.9,286047002.2,N
1632111515.7,286046999.7,N
1632111535.6,286047001.1,N
1632111555.4,286046998.3,N
1632111575.2,286046998.6,N
1632111595.1,286047001.1,N
1632111596.0,286047001.1,N
1632111615.8,286047000.4,N
1632111635.7,286047002.2,N
1632111655.5,286047002.0,N
1632111675.3,286047002.7,N
1632111695.2,286047001.9,N
1632111715.9,286047000.1,N
1632111735.7,286047000.7,N
1632111755.6,286047000.4,N
1632111775.4,286047001.1,N
1632111795.3,286047002.3,N
1632111815.1,286047002.8,N
1632111816.0,286047002.8,N
1632111835.8,286047002.6,N
1632111855.7,286046998.3,N
1632111875.5,286047001.2,N
1632111895.3,286047001.1,N
1632111915.2,286047000.9,N
1632111935.0,286047000.2,N
1632111935.9,286047000.2,N
1632111955.8,286047002.4,N
1632111975.6,286046999.7,N
1632111995.4,286047002.7,N
1632112015.3,286047002.5,N
1632112035.1,286047001.4,N
1632112055.9,286047002.4,N
1632112075.7,286046999.8,N
1632112095.5,286047002.3,N
1632112115.4,286047001.1,N
1632112135.2,286047000.7,N
1632112155.0,286047002.4,N
1632112155.9,286047002.4,N
1632112175.8,286047002.4,N
1632112195.6,286047002.5,N
1632112215.5,286047004.3,Y
1632112235.3,286047000.3,P
1632112255.1,286047000.8,N
1632112275.9,286046998.6,N
1632112295.7,286046998.4,N
1632112315.5,286046998.8,N
1632112335.4,286046998.4,N
1632112355.2,286047000.1,N
1632112375.1,286047000.8,N
1632112376.0,286047000.8,N
1632112395.8,286047001.2,N
1632112415.6,286047001.1,N
1632112435.5,286046999.3,N
1632112455.3,286046996.8,N
1632112475.2,286046996.9,N
1632112495.4,286046996.9,N
1632112515.2,286046997.1,N
1632112535.1,286046996.6,N
1632112536.0,286046996.6,N
1632112555.8,286046998.2,N
1632112575.6,286047001.0,N
1632112595.5,286046998.5,N
1632112615.3,286047001.2,N
1632112635.2,286046998.5,N
1632112655.9,286046998.5,N
1632112675.7,286046999.2,N
1632112695.6,286046999.3,N
1632112715.4,286046998.3,N
1632112735.2,286047000.5,N
1632112755.1,286047002.8,N
1632112756.0,286047002.8,N
1632112775.8,286047000.6,N
1632112795.7,286047000.9,N
1632112815.5,286047000.6,N
1632112835.3,286046998.9,N
1632112855.2,286046998.4,N
1632112875.0,286046998.6,N
1632112875.9,286046998.6,N
1632112895.8,286047000.3,N
1632112915.6,286047000.4,N
1632112935.4,286046998.1,N
1632112955.3,286047001.2,N
1632112975.1,286046999.5,N
1632112995.8,286046999.5,N
1632113015.7,286046996.5,N
1632113035.5,286047000.8,N
1632113055.4,286047000.9,N
1632113075.2,286046999.9,N
1632113095.0,286047001.1,N
1632113095.9,286047001.1,N
1632113115.8,286046998.6,N
1632113135.6,286047000.8,N
1632113155.5,286047000.0,N
1632113175.3,286047001.0,N
1632113195.2,286047000.3,N
1632113215.9,286047000.8,N
1632113235.7,286046998.1,N
1632113255.6,286046998.1,N
1632113275.4,286046996.6,N
1632113295.2,286046999.0,N
1632113315.1,286046998.2,N
1632113316.0,286046998.2,N
1632113335.8,286047000.8,N
1632113355.7,286047000.8,N
1632113375.5,286047001.1,N
1632113395.3,286046998.1,N
1632113415.2,286046998.5,N
1632113435.0,286046998.1,N
1632113435.9,286046998.1,N
1632113455.8,286046998.4,N
1632113475.6,286046999.1,N
1632113495.4,286046999.3,N
1632113515.3,286046999.6,N
1632113535.1,286046998.4,N
1632113555.8,286046999.4,N
1632113575.7,286046998.4,N
1632113595.5,286046998.1,N
1632113615.4,286046998.2,N
1632113635.2,286046998.9,N
1632113655.0,286046996.9,N
1632113655.9,286046996.9,N
1632113675.8,286046997.2,N
1632113695.6,286046997.1,N
1632113715.4,286046996.8,N
1632113735.3,286046996.7,N
1632113755.1,286046999.2,N
1632113775.9,286046999.2,N
1632113795.7,286046999.5,N
1632113815.5,286046996.5,N
1632113835.4,286047001.1,N
1632113855.2,286046998.9,N
1632113875.0,286046998.3,N
1632113875.9,286046998.3,N
1632113895.8,286047001.1,N
1632113915.6,286046998.5,N
1632113935.5,286046998.6,N
1632113955.3,286047001.0,N
1632113975.1,286046998.7,N
1632113995.9,286046996.6,N
